Location: Newark
(16.3678°N, 77.8722°E)
Time: 03:28:53
(UTC+00:00)

S-56A Canister/Altair - Pass Details

Date: 14 December 2019
Orbit: 634 x 2498 km, 38.9° (Epoch: 19 January)

Event Time Altitude Azimuth Distance (km) Brightness Sun altitude
Rises 05:53:34 0° 291° (WNW) 5,765 11.7 48.6°
Reaches altitude 10° 05:58:06 10° 302° (WNW) 4,949 11.5 48.9°
Maximum altitude 06:09:58 28° 356° (N) 3,846 11.0 49.6°
Drops below altitude 10° 06:21:51 10° 51° (NE) 4,948 11.5 50.1°
Sets 06:26:24 0° 62° (ENE) 5,764 11.8 50.2°
